Terminal Aerodrome Forecast
Issued by NWS Dodge City, KS

Home | Current Version | Previous Version | Graphics & Text | Print | Product List | Glossary Off
Versions: 1 2 3 4 5 6 7 8 9 10 11 12 13 14 15 16 17 18 19 20 21 22 23 24 25 26 27 28 29 30 31 32 33 34 35 36 37 38 39 40 41 42 43 44 45 46 47 48 49 50

571
FTUS43 KDDC 220520
TAFDDC
TAF
KDDC 220520Z 2206/2306 10008KT P6SM VCSH OVC022
     FM221200 08006KT P6SM VCSH OVC008
     FM222100 16014KT P6SM OVC015
     FM230500 17010KT P6SM SCT025 WS015/24030KT=

USA.gov is the U.S. government's official web portal to all federal, state and local government web resources and services.